Weather History for Chihuahua, Mexico

Change the Weather History Date:

Friday, September 6, 2013

  Actual Average Record
Temperature  
Mean Temperature 72 °F -  
Max Temperature 83 °F 83 °F 95 °F (2001)
Min Temperature 62 °F 55 °F 53 °F (2011)
Cooling Degree Days 8    
Growing Degree Days 22 (Base 50)    
Moisture  
Dew Point 56 °F    
Average Humidity 56    
Maximum Humidity 94    
Minimum Humidity 31    
Precipitation  
Precipitation 0.00 in - - ()
Sea Level Pressure  
Sea Level Pressure 30.00 in    
Wind  
Wind Speed 4 mph ()    
Max Wind Speed 10 mph    
Max Gust Speed -    
Visibility 7.7 miles    
Events      
Averages and records for this station are not official NWS values.
T = Trace of Precipitation, MM = Missing Value Source: Averaged Metar Reports

Daily Weather History Graph

Daily Weather History Graph

Search for Another Location

Airport:

Trip Planner

Search our weather history database for the weather conditions in past years. The results will help you decide how hot, cold, wet, or windy it might be!

Date:

Astronomy

Sep. 06, 2013 Rise Set
Actual Time 6:44 AM MDT 7:19 PM MDT
Civil Twilight 6:20 AM MDT 7:42 PM MDT
Nautical Twilight 5:52 AM MDT 8:10 PM MDT
Astronomical Twilight 5:24 AM MDT 8:39 PM MDT
Moon 7:49 AM MDT (9/6) 7:57 PM MDT (9/6)
Length of Visible Light 13h 22m
Length of Day
12h 34m
New Moon, 2% of the Moon is Illuminated
Sep 6
New Moon
Sep 12
First Quarter
Sep 19
Full
Sep 26
Last Quarter
Oct 4
New

Hourly Weather History & Observations

Time (MDT) Temp. Heat Index Dew Point Humidity Pressure Visibility Wind Dir Wind Speed Gust Speed Precip Events Conditions
2:40 AM 66 °F - 59 °F 72% 29.79 in 1 mi Calm Calm - -  
4:40 AM 60.8 °F - 57.2 °F 88% 30.20 in 10.0 mi West 4.6 mph - N/A   Scattered Clouds
5:40 AM 59.0 °F - 57.2 °F 94% 29.88 in 10.0 mi South 4.6 mph - N/A   Scattered Clouds
5:45 AM 65 °F - 57 °F 68% 29.83 in 1 mi NNW 2.2 mph - -   Scattered Clouds
6:40 AM 57.2 °F - 55.4 °F 94% 30.21 in 10.0 mi SSE 4.6 mph - N/A   Mostly Cloudy
7:40 AM 57.2 °F - 53.6 °F 88% 30.23 in 10.0 mi SSE 4.6 mph - N/A   Mostly Cloudy
8:44 AM 66.2 °F - 59.0 °F 78% 29.98 in 1.0 mi Calm Calm - N/A   Mostly Cloudy
8:45 AM 73 °F - 59 °F 52% 29.91 in 6 mi Calm Calm - -   Mostly Cloudy
9:46 AM 73.4 °F - 57.2 °F 57% 30.26 in 10.0 mi ENE 6.9 mph - N/A   Mostly Cloudy
10:40 AM 75.2 °F - 55.4 °F 50% 30.25 in 10.0 mi ENE 9.2 mph - N/A   Mostly Cloudy
11:45 AM 79 °F - 58 °F 39% 29.88 in 6 mi East 4.5 mph - -   Mostly Cloudy
11:48 AM 78.8 °F - 55.4 °F 44% 29.95 in 10.0 mi East 8.1 mph - N/A   Mostly Cloudy
12:40 PM 80.6 °F 80.5 °F 55.4 °F 42% 30.22 in 10.0 mi ENE 10.4 mph - N/A   Mostly Cloudy
1:40 PM 78.8 °F - 53.6 °F 42% 30.20 in 10.0 mi East 4.6 mph - N/A   Mostly Cloudy
2:40 PM 82 °F - 57 °F 31% 29.78 in 6 mi ENE 4.5 mph - -   Partly Cloudy
2:45 PM 82.4 °F 81.7 °F 55.4 °F 39% 29.84 in 10.0 mi NE 5.8 mph - N/A   Mostly Cloudy
3:40 PM 82.4 °F 81.4 °F 53.6 °F 37% 30.13 in 10.0 mi ESE 4.6 mph - N/A   Mostly Cloudy
4:40 PM 82.4 °F 81.4 °F 53.6 °F 37% 30.12 in 10.0 mi East 3.5 mph - N/A   Mostly Cloudy
5:40 PM - - - N/A% - 10.0 mi NE 5.8 mph - N/A   Mostly Cloudy
5:45 PM 81 °F - 61 °F 41% 29.70 in 6 mi East 6.7 mph - -   Scattered Clouds
6:40 PM 78.8 °F - 53.6 °F 42% 30.11 in 10.0 mi ENE 8.1 mph - N/A   Mostly Cloudy
7:45 PM 77.0 °F - 53.6 °F 44% 30.11 in 10.0 mi WNW 3.5 mph - N/A   Mostly Cloudy
8:40 PM 76 °F - 58 °F 44% 29.68 in 1 mi WNW 2.2 mph - -   Partly Cloudy
8:40 PM 75.2 °F - 55.4 °F 50% 29.86 in 10.0 mi WSW 3.5 mph - N/A   Mostly Cloudy
9:40 PM 69.8 °F - 57.2 °F 64% 30.13 in 10.0 mi East 3.5 mph - N/A   Mostly Cloudy
10:40 PM 69.8 °F - 57.2 °F 64% 30.14 in 10.0 mi SSE 3.5 mph - N/A   Mostly Cloudy
11:40 PM 71 °F - 55 °F 47% 29.72 in 1 mi NNE 2.2 mph - -   Partly Cloudy